Tracking 29892 objects as of 21-Nov-2024
HD Live streaming from Space Station
objects crossing your sky now

FENGYUN 1C DEB

Track FENGYUN 1C DEB now!
10-day predictions


NORAD ID: 31685
Int'l Code: 1999-025CCT
Perigee: 857.0 km
Apogee: 879.8 km
Inclination: 98.8 °
Period: 102.2 minutes
Semi major axis: 7239 km
RCS: 0.0031 m2 (small)
Launch date: May 10, 1999
Source: People's Republic of China (PRC)
Launch site: Taiyaun Space Center, China (TSC)

Note: This is SATELLITE DEBRIS
Your satellite tracking list
Your tracking list is empty




NASA's NSSDC Master Catalog

Two Line Element Set (TLE):
1 31685U 99025CCT 24324.93327490  .00000321  00000-0  20826-3 0  9997
2 31685  98.7715 354.0027 0015724 243.4017 116.5543 14.09455775900611
Source of the keplerian elements: AFSPC